Weather in Kolatselga

Russia / Republic of Karelia     61°40′42″N   32°13′48″E
temp.,
°C
wind,
m/s
gust,
m/s
humid.,
%
clouds,
%
prec.,
mm/h
press.,
hPa
HPBL,
m
27 july, tue
tue2700:00+16nnw22845 0.3 102032
03:00+15se00896 0.6 102011
06:00+16ene249498 0.5 1020120
09:00+17e128985 1.2 1020192
12:00+25ssw224848 0.0 1019732
15:00+29wnw03343 0.0 10171993
18:00+18n1490100 1.8 1017124
21:00+17e249745 3.8 1017116
28 july, wed
wed2800:00+15se25956 0.0 101793
03:00+14ese259753 0.0 101690
06:00+15ese259172 0.0 1014117
09:00+22sse235991 0.0 1012354
12:00+28s233568 0.0 10101565
15:00+26sw3437100 0.0 10091268
18:00+26ssw3442100 0.0 1007840
21:00+20sw1268100 0.0 100761
29 july, thu
thu2900:00+16ssw2391100 0.7 100664
03:00+15ssw259599 1.0 1005120
06:00+16s149499 0.2 1004137
09:00+20s357541 0.2 1002577
12:00+24ssw455348 0.0 10001363
15:00+22wsw5865100 1.1 10001134
18:00+19wsw3985100 2.3 998471
21:00+17sw39933 3.0 998274
30 july, fri
fri3000:00+15sw311975 0.9 998267
03:00+14sw31195100 0.9 999300
06:00+15sw3109457 0.0 999408
09:00+19wsw5870100 0.0 9991081
12:00+21sw695222 0.1 9991737
15:00+22sw6104665 0.7 9982129
18:00+22sw511423 0.0 9972222
21:00+17ssw3867100 0.0 997371
31 july, sat
sat3100:00+13ssw2890100 0.4 997188
03:00+13sse31092100 0.4 995309
06:00+13sse51393100 0.1 993569
09:00+13s61291100 1.0 991781
12:00+14s61297100 2.1 9901004
15:00+18sw510826 4.3 9901212
18:00+19wsw597013 1.2 9911250
21:00+16wsw39805 1.4 993388